User: anonymous   Login
Location: Unspecified
(0.0000°N, 0.0000°E)
Time: 07:28:48
(UTC+02:00)
Language:

Timation 2 Rocket - Orbit

View from above orbital plane
View from above orbital plane
View from above satellite
View from above satellite

Ground track
Ground track

The orbit data is extracted from the following two-line orbital elements,

1  4159U 69082AB  17083.90188646 -.00000013 +00000-0 +38349-4 0  9991
2  4159 069.9639 330.0218 0116644 196.0031 163.7366 13.72370498376071
Epoch (UTC): 24 March 2017 21:38:42
Eccentricity: 0.0116644
inclination: 69.9639°
perigee height: 905 km
apogee height: 1077 km
right ascension of ascending node: 330.0218°
argument of perigee: 196.0031°
revolutions per day: 13.72370498
mean anomaly at epoch: 163.7366°
orbit number at epoch: 37607

The dashed part of the orbit path shows where the satellite is in the earth's shadow,  

DLR